Change the Weather History Date:

Friday, May 2, 2014

  Actual Average Record
Temperature  
Mean Temperature 62 °F 58 °F  
Max Temperature 69 °F 69 °F 90 °F (1894)
Min Temperature 54 °F 48 °F 34 °F (1943)
Degree Days  
Heating Degree Days 3 7  
Month to date heating degree days 3 14  
Since 1 July heating degree days 5052 4683  
Cooling Degree Days 0 1  
Month to date cooling degree days 3 2  
Year to date cooling degree days 10 14  
Growing Degree Days 11 (Base 50)    
Moisture  
Dew Point 41 °F    
Average Humidity 53    
Maximum Humidity 71    
Minimum Humidity 34    
Precipitation  
Precipitation 0.00 in 0.11 in 1.68 in (1989)
Month to date precipitation 0.34 0.22  
Year to date precipitation 19.58 13.33  
Snow  
Snow 0.00 in 0.00 in 0.00 in (1894)
Month to date snowfall 0.0 0.0  
Since 1 July snowfall 56.1 20.2  
Snow Depth 0.00 in    
Sea Level Pressure  
Sea Level Pressure 29.83 in    
Wind  
Wind Speed 9 mph (West)    
Max Wind Speed 21 mph    
Max Gust Speed 31 mph    
Visibility 10 miles    
Events      
T = Trace of Precipitation, MM = Missing Value Source: NWS Daily Summary

Daily Weather History Graph

Daily Weather History Graph

Search for Another Location

Airport or City:

Trip Planner

Search our weather history database for the weather conditions in past years. The results will help you decide how hot, cold, wet, or windy it might be!

Date:

Astronomy

May. 02, 2014 Rise Set
Actual Time 6:01 AM EDT 7:57 PM EDT
Civil Twilight 5:32 AM EDT 8:26 PM EDT
Nautical Twilight 4:57 AM EDT 9:02 PM EDT
Astronomical Twilight 4:18 AM EDT 9:41 PM EDT
Moon 8:37 AM EDT (5/2) 11:17 PM EDT (5/2)
Length of Visible Light 14h 54m
Length of Day
13h 55m
Waxing Crescent, 12% of the Moon is Illuminated
May 2
Waxing Crescent
May 6
First Quarter
May 14
Full
May 21
Last Quarter
May 28
New

Hourly Weather History & Observations

Time (EDT) Temp. Dew Point Humidity Pressure Visibility Wind Dir Wind Speed Gust Speed Precip Events Conditions
12:51 AM 59.0 °F 48.0 °F 67% 29.79 in 10.0 mi NW 8.1 mph - N/A   Overcast
1:51 AM 59.0 °F 46.4 °F 63% 29.79 in 10.0 mi WNW 5.8 mph - N/A   Overcast
2:51 AM 59.0 °F 44.1 °F 58% 29.80 in 10.0 mi West 6.9 mph - N/A   Overcast
3:51 AM 57.9 °F 43.0 °F 58% 29.81 in 10.0 mi West 5.8 mph - N/A   Overcast
4:51 AM 55.9 °F 44.1 °F 64% 29.80 in 10.0 mi Calm Calm - N/A   Overcast
5:51 AM 54.0 °F 44.1 °F 69% 29.82 in 10.0 mi SW 5.8 mph - N/A   Overcast
6:51 AM 54.0 °F 44.1 °F 69% 29.83 in 10.0 mi West 6.9 mph - N/A   Mostly Cloudy
7:51 AM 57.9 °F 45.0 °F 62% 29.83 in 10.0 mi WSW 6.9 mph - N/A   Overcast
8:51 AM 62.1 °F 43.0 °F 50% 29.83 in 10.0 mi West 4.6 mph - N/A   Partly Cloudy
9:51 AM 64.0 °F 39.9 °F 41% 29.84 in 10.0 mi West 15.0 mph - N/A   Clear
10:51 AM 64.9 °F 39.0 °F 39% 29.83 in 10.0 mi WNW 19.6 mph 24.2 mph N/A   Partly Cloudy
11:51 AM 64.9 °F 37.0 °F 36% 29.83 in 10.0 mi West 18.4 mph 25.3 mph N/A   Scattered Clouds
12:51 PM 66.0 °F 37.9 °F 36% 29.82 in 10.0 mi West 15.0 mph - N/A   Mostly Cloudy
1:51 PM 66.0 °F 39.0 °F 37% 29.82 in 10.0 mi West 12.7 mph 21.9 mph N/A   Overcast
2:51 PM 66.9 °F 37.9 °F 34% 29.82 in 10.0 mi West 12.7 mph 21.9 mph N/A   Overcast
3:51 PM 68.0 °F 39.0 °F 35% 29.80 in 10.0 mi WNW 15.0 mph 21.9 mph N/A   Mostly Cloudy
4:51 PM 66.9 °F 39.0 °F 36% 29.80 in 10.0 mi West 13.8 mph - N/A   Mostly Cloudy
5:51 PM 66.0 °F 39.9 °F 38% 29.82 in 10.0 mi WNW 9.2 mph - N/A   Mostly Cloudy
6:51 PM 64.9 °F 39.0 °F 39% 29.83 in 10.0 mi WNW 10.4 mph - N/A   Clear
7:51 PM 61.0 °F 39.0 °F 44% 29.86 in 10.0 mi WNW 8.1 mph - N/A   Mostly Cloudy
8:51 PM 57.9 °F 39.9 °F 51% 29.87 in 10.0 mi NW 6.9 mph - N/A   Partly Cloudy
9:51 PM 57.0 °F 39.9 °F 53% 29.88 in 10.0 mi NNW 6.9 mph - N/A   Scattered Clouds
10:51 PM 60.1 °F 37.9 °F 44% 29.89 in 10.0 mi Calm Calm - N/A   Overcast
11:51 PM 59.0 °F 39.9 °F 49% 29.89 in 10.0 mi Calm Calm - N/A   Overcast